Weather in Sunny Isles Beach

United States     25°56′01″N   80°07′18″W
В апреле 2022 года жителям России запретили посещать сайт meteo.paraplan.net по решению Генеральной прокуратуры. Аудитория сайта уменьшилась в 10 раз. Владельцы сайта не видят смысла в поддержке погодного сервера в таких условиях. Сайт будет закрыт в октябре.
temp.,
°C
wind,
m/s
gust,
m/s
humid.,
%
clouds,
%
prec.,
mm/h
press.,
hPa
HPBL,
m
4 october, tue
tue423:00+26ne5568100 1.8 1014487
02:00+26nne447157 4.3 1013376
05:00+26n557030 1.3 1013619
08:00+25n667323 1.6 1014522
11:00+25n65706 0.2 1015775
14:00+26ne65655 0.2 1014630
17:00+26ne776914 0.0 1012625
20:00+26nne777032 0.9 1014803
5 october, wed
wed523:00+26nne77725 0.8 1014947
02:00+26nne66731 0.9 1014876
05:00+26nne55740 0.1 1013710
08:00+26nne66747 0.3 1015762
11:00+26ne667546 1.6 1016612
14:00+26ne777450 3.7 1015781
17:00+26ne877161 0.6 10141036
20:00+26ne886988 0.6 10151198
6 october, thu
thu623:00+26ne887092 0.1 10161142
02:00+26ene886997 0.1 10161190
05:00+26ne7767100 0.0 10151252
08:00+26ne876857 0.0 10171184
11:00+26ne786989 0.0 10181041
14:00+26ne776836 0.0 10171186
17:00+26ne886898 0.0 10161143
20:00+26ne9968100 0.0 10171081
7 october, fri
fri723:00+26ene886944 0.0 10181082
02:00+26ene877014 0.0 10181114
05:00+26ne7768100 0.0 10171207
08:00+26ne8870100 0.0 10181146
11:00+26ne887047 0.0 10191173
14:00+26ne886997 0.0 10171188
17:00+26ne986971 0.0 10161226
20:00+26ne997044 0.0 10171156
8 october, sat
sat823:00+27ene997051 0.0 10181135
02:00+27ene8870100 0.0 10171178
05:00+26ne7874100 0.1 1016808
08:00+26ne997769 0.1 1017757
11:00+27ne997830 0.4 1018899
14:00+26ne997825 2.8 1017904
17:00+27ne10107554 1.6 10161036
20:00+27ne10107367 1.6 10161153